This demonstration page uses our WeatherBlox Daily Observations layout. Learn more.

Left ArrowRight Arrow

34.74481, -87.66753

Hourly Observations for August 28, 2015

Temp ( °F °C ) Dew Point ( °F °C ) Humidity (%) Winds ( mph kmh ) Pressure ( in mb ) Visibility ( mi km ) Precip ( " mm )
12:53 am 00:53 Clear 66 18.9 58 14.4 75 75 Calm 30.05 1018 10 16 0.00 0.00
1:53 am 01:53 Clear 63 17.2 58 14.4 84 84 Calm 30.04 1017 10 16 0.00 0.00
2:53 am 02:53 Clear 63 17.2 59 15 87 87 Calm 30.04 1017 10 16 0.00 0.00
3:53 am 03:53 Clear 63 17.2 59 15 87 87 Calm 30.04 1017 10 16 0.00 0.00
4:53 am 04:53 Clear 63 17.2 59 15 87 87 Calm 30.05 1018 10 16 0.00 0.00
5:53 am 05:53 Clear 61 16.1 58 14.4 90 90 Calm 30.07 1018 9 14 0.00 0.00
6:53 am 06:53 Sunny 62 16.7 59 15 90 90 ENE 3 6 30.09 1019 9 14 0.00 0.00
7:53 am 07:53 Sunny 68 20 62 16.7 81 81 ENE 5 7 30.10 1019 10 16 0.00 0.00
8:53 am 08:53 Sunny 73 22.8 65 18.3 76 76 SE 5 7 30.11 1020 10 16 0.00 0.00
9:53 am 09:53 Sunny 77 25 66 18.9 69 69 ESE 6 9 30.11 1020 10 16 0.00 0.00
10:53 am 10:53 Sunny 82 27.8 68 20 63 63 SSE 7 11 30.11 1020 10 16 0.00 0.00
11:53 am 11:53 Mostly Sunny 85 29.4 67 19.4 55 55 SSE 10 17 30.10 1019 10 16 0.00 0.00
12:53 pm 12:53 Sunny 87 30.6 66 18.9 50 50 SSE 7 11 30.07 1018 10 16 0.00 0.00
1:53 pm 13:53 Sunny 88 31.1 63 17.2 43 43 SSE 10 17 30.06 1018 10 16 0.00 0.00
2:53 pm 14:53 Mostly Sunny 86 30 63 17.2 46 46 SE 9 15 30.04 1017 10 16 0.00 0.00
3:53 pm 15:53 Partly Cloudy 89 31.7 64 17.8 43 43 SE 10 17 30.02 1017 10 16 0.00 0.00
4:53 pm 16:53 Mostly Cloudy 85 29.4 66 18.9 53 53 ESE 6 9 30.02 1017 10 16 0.00 0.00
5:53 pm 17:53 Sunny 84 28.9 66 18.9 55 55 E 6 9 30.02 1017 10 16 0.00 0.00
6:53 pm 18:53 Sunny 81 27.2 67 19.4 62 62 E 5 7 30.03 1017 10 16 0.00 0.00
7:53 pm 19:53 Clear 75 23.9 67 19.4 76 76 E 6 9 30.04 1017 10 16 0.00 0.00
8:53 pm 20:53 Clear 75 23.9 67 19.4 76 76 E 5 7 30.06 1018 10 16 0.00 0.00
9:53 pm 21:53 Mostly Clear 73 22.8 67 19.4 81 81 ESE 5 7 30.09 1019 10 16 0.00 0.00
10:53 pm 22:53 Mostly Clear 73 22.8 67 19.4 81 81 ESE 3 6 30.08 1019 10 16 0.00 0.00
11:53 pm 23:53 Mostly Cloudy 75 23.9 68 20 79 79 SSE 3 6 30.09 1019 10 16 0.00 0.00

Powered by AerisWeather